Home > Weather > Arth > Past weeks

Flag for Switzerland Weather for the Past 2 Weeks in Arth, Schwyz, Switzerland

Now
39 °F

Chilly.


Feels Like: 34 °F
Forecast: 26 / 40 °F
Wind: 8 mph from West

Location: Zuerich-Fluntern

Current Time: Feb 8, 2016 at 1:45:14 AM

Latest Report: Feb 8, 2016 at 12:00 AM


Visibility: N/A

Pressure: 29.98 "Hg

Humidity: 78%

Dew point: 33 °F

Location of ArthLocation

Historic Weather in Arth — Graph

°F

Arth Temperature Yesterday

Maximum temperature yesterday: 46 °F (at 1:00 PM)
Minimum temperature yesterday: 39 °F (at 7:00 PM)
Average temperature yesterday: 41 °F

High & Low Weather Summary for the Past Weeks

 TemperatureHumidityPressure
High56 °F (Feb 1, 1:00 PM)100% (Jan 24, 5:00 AM)30.68 "Hg (Jan 24, 5:00 AM)
Low28 °F (Jan 24, 6:00 AM)51% (Jan 25, 2:00 PM)29.65 "Hg (Feb 7, 10:00 AM)
Average43 °F79%30.29 "Hg
* Reported Jan 23 11:00 PM — Feb 7 11:00 PM, Arth, Weather by CustomWeather, © 2016

Note: Actual official high and low records may vary slightly from our data, if they occured in-between our weather recording intervals... More about our weather records

Advertising

Arth Weather History for the Previous 24 Hours

 ConditionsComfort  
Time TempWeatherWind HumidityBarometerVisibility
11:00 PM
Sun, Feb 7
40 °FQuite cool.10 mph76%29.98 "HgN/A
10:00 PM40 °FChilly.9 mph79%29.98 "HgN/A
9:00 PM40 °FQuite cool.9 mph79%29.96 "HgN/A
8:00 PM40 °FChilly.7 mph83%29.96 "HgN/A
7:00 PM39 °FChilly.6 mph89%29.94 "HgN/A
6:00 PM39 °FChilly.8 mph88%29.92 "HgN/A
5:00 PM39 °FChilly.6 mph91%29.90 "HgN/A
4:00 PM39 °FChilly.10 mph88%29.88 "HgN/A
3:00 PM41 °FQuite cool.12 mph82%29.85 "HgN/A
2:00 PM43 °FQuite cool.14 mph76%29.78 "HgN/A
1:00 PM46 °FCool.9 mph77%29.74 "HgN/A
12:00 PM42 °FQuite cool.6 mph76%29.72 "HgN/A
11:00 AM44 °FQuite cool.3 mph73%29.65 "HgN/A
10:00 AM40 °FChilly.5 mph80%29.65 "HgN/A
9:00 AM41 °FQuite cool.1 mph75%29.66 "HgN/A
8:00 AM39 °FChilly.6 mph79%29.69 "HgN/A
7:00 AM40 °FChilly.3 mph78%29.68 "HgN/A
6:00 AM40 °FQuite cool.3 mph77%29.71 "HgN/A
5:00 AM41 °FQuite cool.1 mph74%29.73 "HgN/A
1:00 AM40 °FQuite cool.3 mph80%29.83 "HgN/A
Weather by CustomWeather, © 2016

See weather overviewHow to use our weather pages